[[{"header":{"parameterUnit":"m.s-1","parameterCategory":1,"la1":30.2991,"la2":30.254,"lo1":-89.0895,"lo2":-89.0444,"dy":0.0017,"dx":0.0017,"nx":28,"ny":28,"refTime":"2025-08-30T09:00:00:Z","depth":0,"parameterNumber":2,"parameterNumberName":"U-component_of_WINDS"},"data":[0,0,0,0,0,0,0,0,0,0,0,0,0,0,0,0,0,0,0,0,0,0,0,0,0,0,0,0,0,0,0,0,0,0,0,0,0,0,0,0,0,0,0,0,0,0,0,0,0,0,0,0,0,0,0,0,0,0,-2.0793,-2.0793,0,-2.0756,-2.0755,-2.0755,-2.0698,-2.0697,-2.0696,-2.0695,-2.0656,-2.0656,-2.0656,0,0,0,0,0,0,0,0,0,0,0,0,0,-2.0816,-2.0815,-2.0793,-2.0793,-2.0792,-2.0756,-2.0755,-2.0755,-2.0698,-2.0697,-2.0695,-2.0694,-2.0656,-2.0656,-2.0656,0,0,0,0,0,0,0,0,0,0,0,0,0,-2.0795,-2.0815,-2.0793,-2.0759,-2.0756,-2.0756,-2.0755,-2.0755,-2.0698,-2.0697,-2.0695,-2.0694,-2.0656,-2.0656,-2.0656,-2.0685,0,0,-2.0655,-2.0655,0,0,0,0,0,0,0,0,-2.0796,-2.0794,-2.0765,-2.0762,-2.0758,-2.073,-2.0749,-2.0731,-2.0699,-2.072,-2.0695,-2.0693,-2.0682,-2.0679,-2.0675,-2.0683,-2.0682,-2.0655,-2.0655,-2.0655,-2.0655,0,0,0,0,0,0,0,-2.0798,-2.0795,-2.0778,-2.0764,-2.076,-2.0746,-2.0742,-2.0745,-2.071,-2.0718,-2.0714,-2.071,-2.0679,-2.0676,-2.0674,-2.0681,-2.0655,-2.0655,-2.0655,-2.0655,-2.0714,-2.0715,0,0,0,0,0,0,-2.0804,-2.0797,-2.0779,-2.0777,-2.0774,-2.0747,-2.0742,-2.074,-2.071,-2.0703,-2.0712,-2.0708,-2.0677,-2.0674,-2.0673,-2.0707,-2.0655,-2.0655,-2.0655,-2.0712,-2.0714,-2.0716,0,0,0,0,0,0,-2.0805,-2.0803,-2.0781,-2.0786,-2.0782,-2.0748,-2.0747,-2.074,-2.0737,-2.0705,-2.0698,-2.0714,-2.0675,-2.0673,-2.0683,-2.0705,-2.0655,-2.0655,-2.071,-2.0713,-2.0715,-2.0775,0,0,0,0,0,0,-2.0806,-2.0804,-2.0814,-2.0786,-2.0782,-2.0792,-2.0748,-2.0741,-2.0737,-2.0731,-2.0706,-2.07,-2.0674,-2.0684,-2.0683,-2.0704,-2.0655,-2.0708,-2.0711,-2.0714,-2.0771,-2.0779,-2.0786,0,0,0,0,0,-2.0807,-2.0832,-2.0815,-2.0813,-2.0795,-2.0793,-2.0791,-2.0761,-2.0739,-2.075,-2.0729,-2.0701,-2.0702,-2.0685,-2.0684,-2.0705,-2.0706,-2.071,-2.0714,-2.0768,-2.0778,-2.0786,0,0,0,0,0,0,-2.0862,-2.0828,-2.0809,-2.0826,-2.0813,-2.0784,-2.0796,-2.0772,-2.0765,-2.076,-2.0723,-2.0718,-2.0733,-2.072,-2.0701,-2.0733,-2.07,-2.0704,-2.0741,-2.0751,-2.0758,-2.0762,-2.0654,0,0,0,0,0,-2.0877,-2.0879,-2.0848,-2.0866,-2.0861,-2.083,-2.0828,-2.0806,-2.0792,-2.0786,-2.0766,-2.0753,-2.075,-2.075,-2.0745,-2.0769,-2.0763,-2.0783,-2.079,-2.0797,-2.0801,-2.0814,-2.0823,-2.0728,-2.0728,-2.0728,0,0,-2.0906,-2.0888,-2.0891,-2.0877,-2.0865,-2.0868,-2.0826,-2.083,-2.0833,-2.0786,-2.0795,-2.0781,-2.0763,-2.0781,-2.0788,-2.077,-2.0826,-2.0801,-2.0807,-2.0807,-2.0819,-2.0828,-2.0836,-2.073,-2.073,-2.0729,0,0,-2.0963,-2.0948,-2.0963,-2.0951,-2.0934,-2.0913,-2.0917,-2.0891,-2.088,-2.0889,-2.0855,-2.0857,-2.0853,-2.0843,-2.0837,-2.0891,-2.0866,-2.0891,-2.0932,-2.0945,-2.0953,-2.0959,-2.0981,-2.0989,-2.0895,-2.0895,-2.0895,0,-2.1002,-2.1005,-2.0973,-2.0981,-2.0976,-2.0935,-2.095,-2.0941,-2.0922,-2.0921,-2.0901,-2.0897,-2.0882,-2.0898,-2.0912,-2.0908,-2.0912,-2.0894,-2.0954,-2.096,-2.0966,-2.0986,-2.0994,-2.0898,-2.0898,-2.0897,-2.0897,0,-2.1055,-2.1059,-2.1072,-2.1057,-2.1054,-2.1065,-2.1035,-2.1036,-2.1015,-2.0997,-2.1007,-2.0988,-2.0981,-2.0982,-2.0961,-2.0996,-2.0986,-2.0961,-2.0927,-2.0979,-2.0998,-2.1005,-2.0903,-2.0902,-2.0901,-2.09,0,0,-2.1145,-2.1113,-2.1119,-2.1112,-2.109,-2.1092,-2.1102,-2.1095,-2.1098,-2.1087,-2.1095,-2.1094,-2.1071,-2.1065,-2.1042,-2.1054,-2.1101,-2.1028,-2.1027,-2.1044,-2.1141,-2.1161,-2.117,-2.1084,-2.1085,-2.1086,-2.1143,0,-2.1198,-2.1214,-2.1186,-2.1209,-2.1212,-2.1174,-2.1183,-2.1171,-2.1154,-2.1155,-2.1136,-2.1137,-2.1106,-2.1103,-2.1112,-2.1094,-2.1121,-2.1089,-2.1092,-2.1093,-2.11,-2.1179,-2.12,-2.1255,-2.115,-2.1151,-2.1152,0,-2.1262,-2.1256,-2.1279,-2.1258,-2.1258,-2.1267,-2.1259,-2.126,-2.1246,-2.1233,-2.1228,-2.1201,-2.1211,-2.1178,-2.1191,-2.117,-2.117,-2.1161,-2.1162,-2.1163,-2.1127,-2.1184,-2.1271,-2.1281,-2.1162,-2.1161,-2.1161,0,-2.1328,-2.1325,-2.1339,-2.1334,-2.1309,-2.1317,-2.1306,-2.1291,-2.1289,-2.1283,-2.1282,-2.1276,-2.1273,-2.127,-2.1244,-2.1222,-2.1261,-2.1225,-2.1252,-2.1253,-2.1263,-2.1263,-2.1353,-2.126,-2.126,-2.1259,-2.1259,0,-2.1391,-2.1407,-2.1369,-2.1378,-2.1395,-2.1363,-2.1381,-2.1367,-2.1354,-2.136,-2.1326,-2.1332,-2.1296,-2.1299,-2.1278,-2.1293,-2.1292,-2.1283,-2.1277,-2.1287,-2.1288,-2.1287,-2.1284,-2.1262,-2.1261,-2.1261,-2.126,0,-2.1468,-2.1443,-2.1456,-2.1432,-2.1426,-2.144,-2.1419,-2.1427,-2.1409,-2.1417,-2.1417,-2.1389,-2.139,-2.1363,-2.1359,-2.1345,-2.1371,-2.1358,-2.1376,-2.1373,-2.1402,-2.14,-2.1496,-2.1508,-2.1406,-2.1407,-2.1407,0,-2.1511,-2.1523,-2.15,-2.1502,-2.1494,-2.1497,-2.1496,-2.1465,-2.1465,-2.1451,-2.1461,-2.146,-2.1458,-2.1462,-2.1442,-2.1439,-2.1427,-2.1461,-2.1426,-2.1436,-2.143,-2.143,-2.1432,-2.1468,-2.147,-2.1471,-2.1471,0,-2.159,-2.1577,-2.1577,-2.1573,-2.1573,-2.1568,-2.156,-2.1564,-2.153,-2.1532,-2.1534,-2.1533,-2.153,-2.153,-2.1524,-2.1513,-2.1488,-2.1482,-2.1489,-2.15,-2.1511,-2.1507,-2.1398,-2.1481,-2.148,-2.1479,-2.1479,-2.1478,-2.1652,-2.1662,-2.1648,-2.165,-2.1641,-2.1636,-2.1643,-2.1626,-2.1627,-2.1623,-2.1604,-2.161,-2.1597,-2.1586,-2.1579,-2.1583,-2.1567,-2.1575,-2.1578,-2.1581,-2.1588,-2.1509,-2.1581,-2.1581,-2.1581,-2.1581,-2.158,0,-2.1731,-2.1721,-2.1723,-2.1715,-2.1716,-2.1692,-2.1683,-2.1686,-2.1692,-2.1682,-2.1681,-2.1685,-2.1685,-2.1665,-2.1663,-2.1671,-2.1659,-2.1672,-2.1672,-2.167,-2.1601,-2.1597,-2.1681,-2.1681,-2.1681,-2.1681,-2.1681,-2.1681,-2.1773,-2.1789,-2.1775,-2.1787,-2.1776,-2.1782,-2.178,-2.1775,-2.1768,-2.1773,-2.1774,-2.1761,-2.1747,-2.1745,-2.1745,-2.1739,-2.1741,-2.1758,-2.1748,-2.1684,-2.1675,-2.1665,-2.1661,-2.1758,-2.1758,-2.1817,-2.1817,-2.1818]},{"header":{"parameterUnit":"m.s-1","parameterCategory":1,"la1":30.2991,"la2":30.254,"lo1":-89.0895,"lo2":-89.0444,"dy":0.0017,"dx":0.0017,"nx":28,"ny":28,"refTime":"2025-08-30T09:00:00:Z","depth":0,"parameterNumber":3,"parameterNumberName":"V-component_of_WINDS"},"data":[0,0,0,0,0,0,0,0,0,0,0,0,0,0,0,0,0,0,0,0,0,0,0,0,0,0,0,0,0,0,0,0,0,0,0,0,0,0,0,0,0,0,0,0,0,0,0,0,0,0,0,0,0,0,0,0,0,0,-0.101,-0.101,0,-0.1056,-0.1056,-0.1057,-0.1144,-0.1146,-0.1147,-0.1149,-0.1196,-0.1195,-0.1195,0,0,0,0,0,0,0,0,0,0,0,0,0,-0.0997,-0.0997,-0.101,-0.101,-0.1011,-0.1056,-0.1056,-0.1057,-0.1144,-0.1146,-0.1148,-0.115,-0.1196,-0.1195,-0.1195,0,0,0,0,0,0,0,0,0,0,0,0,0,-0.1019,-0.0997,-0.101,-0.106,-0.1064,-0.1056,-0.1056,-0.1057,-0.1143,-0.1146,-0.1148,-0.1151,-0.1196,-0.1195,-0.1195,-0.1141,0,0,-0.1193,-0.1193,0,0,0,0,0,0,0,0,-0.1017,-0.1019,-0.1052,-0.1056,-0.1062,-0.1097,-0.1069,-0.1085,-0.1143,-0.1113,-0.1149,-0.1152,-0.1161,-0.1163,-0.1166,-0.1143,-0.1145,-0.1193,-0.1193,-0.1193,-0.1193,0,0,0,0,0,0,0,-0.1016,-0.1018,-0.1028,-0.1052,-0.1058,-0.108,-0.1086,-0.1073,-0.1122,-0.1116,-0.1123,-0.1127,-0.1164,-0.1166,-0.1168,-0.1146,-0.1193,-0.1193,-0.1192,-0.1192,-0.1084,-0.1082,0,0,0,0,0,0,-0.1007,-0.1016,-0.1027,-0.1029,-0.1045,-0.1078,-0.1085,-0.1083,-0.1123,-0.1131,-0.1125,-0.1131,-0.1166,-0.1168,-0.117,-0.1113,-0.1193,-0.1192,-0.1192,-0.1087,-0.1083,-0.1081,0,0,0,0,0,0,-0.1006,-0.1007,-0.1025,-0.1024,-0.1028,-0.1076,-0.1073,-0.1083,-0.1085,-0.1129,-0.1138,-0.1118,-0.1168,-0.1171,-0.1148,-0.1115,-0.1192,-0.1192,-0.109,-0.1086,-0.1082,-0.0995,0,0,0,0,0,0,-0.1006,-0.1006,-0.0986,-0.1023,-0.1028,-0.1002,-0.1071,-0.1082,-0.1084,-0.1093,-0.1126,-0.1133,-0.117,-0.1149,-0.1148,-0.1116,-0.1191,-0.1093,-0.1088,-0.1083,-0.1001,-0.0988,-0.0978,0,0,0,0,0,-0.1005,-0.0959,-0.0985,-0.0985,-0.1004,-0.1,-0.1002,-0.1046,-0.1081,-0.1062,-0.109,-0.1132,-0.1118,-0.1146,-0.1145,-0.1113,-0.1095,-0.1089,-0.1084,-0.1006,-0.0991,-0.0978,0,0,0,0,0,0,-0.0916,-0.0965,-0.0994,-0.0958,-0.0974,-0.1014,-0.0991,-0.1028,-0.1034,-0.1042,-0.1096,-0.1102,-0.1073,-0.109,-0.112,-0.1064,-0.1114,-0.1107,-0.1055,-0.104,-0.1029,-0.1027,-0.1191,0,0,0,0,0,-0.0892,-0.0885,-0.0928,-0.0892,-0.0899,-0.0943,-0.0943,-0.0975,-0.0994,-0.1001,-0.1028,-0.1044,-0.1044,-0.1043,-0.1045,-0.1003,-0.1013,-0.098,-0.0969,-0.0959,-0.0954,-0.0937,-0.0924,-0.1062,-0.1062,-0.1062,0,0,-0.0843,-0.0869,-0.0861,-0.0875,-0.0891,-0.0884,-0.0948,-0.0936,-0.0932,-0.0999,-0.0981,-0.1001,-0.1023,-0.0991,-0.0979,-0.1005,-0.0918,-0.0952,-0.0944,-0.0944,-0.0929,-0.0916,-0.0905,-0.1058,-0.1058,-0.1059,0,0,-0.0751,-0.0768,-0.0742,-0.0757,-0.0781,-0.0811,-0.0805,-0.084,-0.0856,-0.0838,-0.089,-0.0884,-0.0882,-0.0897,-0.0903,-0.0817,-0.0858,-0.0816,-0.0757,-0.0739,-0.0728,-0.0719,-0.0692,-0.0681,-0.081,-0.081,-0.081,0,-0.0687,-0.0677,-0.0724,-0.071,-0.0716,-0.0777,-0.0752,-0.0764,-0.0787,-0.079,-0.0818,-0.0818,-0.0837,-0.0812,-0.0791,-0.0793,-0.0789,-0.0814,-0.0726,-0.0717,-0.0709,-0.0684,-0.0673,-0.0805,-0.0806,-0.0806,-0.0807,0,-0.0599,-0.0591,-0.0567,-0.059,-0.0592,-0.0572,-0.0617,-0.0614,-0.0646,-0.0673,-0.0656,-0.068,-0.069,-0.0685,-0.0716,-0.0665,-0.0681,-0.0716,-0.0768,-0.069,-0.0668,-0.0658,-0.0798,-0.08,-0.0802,-0.0803,0,0,-0.0453,-0.0502,-0.0493,-0.0505,-0.0536,-0.0531,-0.0515,-0.0525,-0.0522,-0.0536,-0.0525,-0.0522,-0.0556,-0.0564,-0.0597,-0.058,-0.0515,-0.0619,-0.0621,-0.0602,-0.0464,-0.0439,-0.0427,-0.0541,-0.0539,-0.0537,-0.0463,0,-0.037,-0.0345,-0.0387,-0.0353,-0.0348,-0.0407,-0.0393,-0.0411,-0.0435,-0.0435,-0.0463,-0.0461,-0.0505,-0.051,-0.0497,-0.0526,-0.0489,-0.0531,-0.0533,-0.0533,-0.0529,-0.0414,-0.0388,-0.0317,-0.0454,-0.0453,-0.0452,0,-0.027,-0.028,-0.0246,-0.0282,-0.0281,-0.0268,-0.0282,-0.028,-0.0302,-0.0321,-0.033,-0.0369,-0.0357,-0.0404,-0.0389,-0.0417,-0.042,-0.0434,-0.0433,-0.0437,-0.049,-0.0419,-0.0295,-0.0285,-0.0437,-0.0438,-0.0439,0,-0.0172,-0.0176,-0.0157,-0.0165,-0.0205,-0.0195,-0.0211,-0.0236,-0.024,-0.0251,-0.0255,-0.0264,-0.027,-0.0276,-0.0317,-0.0347,-0.0298,-0.0348,-0.0316,-0.0315,-0.0305,-0.0306,-0.0183,-0.0301,-0.0301,-0.0302,-0.0302,0,-0.0076,-0.0054,-0.0114,-0.0103,-0.008,-0.0128,-0.0104,-0.0126,-0.0148,-0.0142,-0.0192,-0.0186,-0.0239,-0.0238,-0.027,-0.0255,-0.0256,-0.0272,-0.0282,-0.027,-0.0268,-0.0275,-0.0282,-0.0299,-0.0299,-0.03,-0.03,0,0.0036,-0.0003,0.0014,-0.0026,-0.0035,-0.0017,-0.0051,-0.0043,-0.0071,-0.0064,-0.0065,-0.0109,-0.0111,-0.0152,-0.0163,-0.0185,-0.0158,-0.0174,-0.015,-0.0157,-0.0124,-0.0128,-0.0004,0.0008,-0.0114,-0.0113,-0.0112,0,0.0098,0.0113,0.0075,0.0075,0.0061,0.0062,0.0057,0.001,0.0007,-0.0018,-0.0007,-0.0014,-0.0022,-0.0024,-0.0057,-0.0066,-0.0086,-0.0042,-0.0088,-0.0077,-0.009,-0.0091,-0.0092,-0.0033,-0.0031,-0.003,-0.0029,0,0.021,0.0189,0.0184,0.0173,0.0168,0.0157,0.0142,0.0145,0.0093,0.0092,0.0088,0.0082,0.007,0.0063,0.0047,0.003,-0.0009,-0.0014,-0.0008,0.0003,0.0014,0.0005,-0.0128,-0.0017,-0.0018,-0.0019,-0.002,-0.002,0.0296,0.0306,0.028,0.0276,0.026,0.0247,0.0252,0.0224,0.022,0.0206,0.0179,0.0179,0.0155,0.013,0.0116,0.0114,0.0091,0.0101,0.0103,0.0105,0.011,0.0018,0.0111,0.0111,0.0111,0.011,0.011,0,0.0402,0.0383,0.0379,0.0359,0.0356,0.0321,0.0302,0.0301,0.0301,0.0282,0.0275,0.0269,0.0262,0.0228,0.0217,0.0222,0.0203,0.022,0.0217,0.0213,0.0133,0.0127,0.0235,0.0235,0.0235,0.0235,0.0235,0.0235,0.0457,0.0471,0.0447,0.0453,0.0433,0.0431,0.0424,0.0411,0.0395,0.0391,0.0384,0.0362,0.0337,0.0323,0.0314,0.0304,0.0301,0.0323,0.0307,0.0232,0.0219,0.0208,0.0202,0.0323,0.0323,0.0386,0.0387,0.0387]}]]